Year,Month,Day,Hour,Minute,Value (Times are PST for temperature in C)
2010,04,12,00,00,4.70
2010,04,12,00,01,4.70
2010,04,12,00,02,4.70
2010,04,12,00,03,4.70
2010,04,12,00,04,4.70
2010,04,12,00,05,4.60
2010,04,12,00,06,4.60
2010,04,12,00,07,4.60
2010,04,12,00,08,4.60
2010,04,12,00,09,4.60
2010,04,12,00,10,4.60
2010,04,12,00,11,4.50
2010,04,12,00,12,4.50
2010,04,12,00,13,4.50
2010,04,12,00,14,4.50
2010,04,12,00,15,4.40
2010,04,12,00,16,4.40
2010,04,12,00,17,4.40
2010,04,12,00,18,4.40
2010,04,12,00,19,4.30
2010,04,12,00,20,4.30
2010,04,12,00,21,4.30
2010,04,12,00,22,4.30
2010,04,12,00,23,4.30
2010,04,12,00,24,4.20
2010,04,12,00,25,4.20
2010,04,12,00,26,4.20
2010,04,12,00,27,4.20
2010,04,12,00,28,4.20
2010,04,12,00,29,4.10
2010,04,12,00,30,4.10
2010,04,12,00,31,4.10
2010,04,12,00,32,4.10
2010,04,12,00,33,4.00
2010,04,12,00,34,4.00
2010,04,12,00,35,4.00
2010,04,12,00,36,4.00
2010,04,12,00,37,3.90
2010,04,12,00,38,3.90
2010,04,12,00,39,3.90
2010,04,12,00,40,3.90
2010,04,12,00,41,3.90
2010,04,12,00,42,3.90
2010,04,12,00,43,3.80
2010,04,12,00,44,3.80
2010,04,12,00,45,3.80
2010,04,12,00,46,3.80
2010,04,12,00,47,3.80
2010,04,12,00,48,3.80
2010,04,12,00,49,3.80
2010,04,12,00,50,3.80
2010,04,12,00,51,3.80
2010,04,12,00,52,3.80
2010,04,12,00,53,3.80
2010,04,12,00,54,3.80
2010,04,12,00,55,3.70
2010,04,12,00,56,3.70
2010,04,12,00,57,3.70
2010,04,12,00,58,3.70
2010,04,12,00,59,3.70
2010,04,12,01,00,3.70
2010,04,12,01,01,3.70
2010,04,12,01,02,3.60
2010,04,12,01,03,3.60
2010,04,12,01,04,3.60
2010,04,12,01,05,3.60
2010,04,12,01,06,3.60
2010,04,12,01,07,3.60
2010,04,12,01,08,3.50
2010,04,12,01,09,3.50
2010,04,12,01,10,3.50
2010,04,12,01,11,3.50
2010,04,12,01,12,3.40
2010,04,12,01,13,3.40
2010,04,12,01,14,3.40
2010,04,12,01,15,3.40
2010,04,12,01,16,3.40
2010,04,12,01,17,3.40
2010,04,12,01,18,3.30
2010,04,12,01,19,3.30
2010,04,12,01,20,3.30
2010,04,12,01,21,3.30
2010,04,12,01,22,3.30
2010,04,12,01,23,3.30
2010,04,12,01,24,3.30
2010,04,12,01,25,3.20
2010,04,12,01,26,3.20
2010,04,12,01,27,3.20
2010,04,12,01,28,3.20
2010,04,12,01,29,3.20
2010,04,12,01,30,3.20
2010,04,12,01,31,3.10
2010,04,12,01,32,3.10
2010,04,12,01,33,3.10
2010,04,12,01,34,3.10
2010,04,12,01,35,3.10
2010,04,12,01,36,3.10
2010,04,12,01,37,3.00
2010,04,12,01,38,3.00
2010,04,12,01,39,3.00
2010,04,12,01,40,3.00
2010,04,12,01,41,2.90
2010,04,12,01,42,2.90
2010,04,12,01,43,2.90
2010,04,12,01,44,2.90
2010,04,12,01,45,2.90
2010,04,12,01,46,2.90
2010,04,12,01,47,2.90
2010,04,12,01,48,2.90
2010,04,12,01,49,2.90
2010,04,12,01,50,2.90
2010,04,12,01,51,2.90
2010,04,12,01,52,2.90
2010,04,12,01,53,2.90
2010,04,12,01,54,2.90
2010,04,12,01,55,2.90
2010,04,12,01,56,2.90
2010,04,12,01,57,2.90
2010,04,12,01,58,2.90
2010,04,12,01,59,2.90
2010,04,12,02,00,2.80
2010,04,12,02,01,2.80
2010,04,12,02,02,2.80
2010,04,12,02,03,2.80
2010,04,12,02,04,2.80
2010,04,12,02,05,2.80
2010,04,12,02,06,2.80
2010,04,12,02,07,2.80
2010,04,12,02,08,2.80
2010,04,12,02,09,2.80
2010,04,12,02,10,2.80
2010,04,12,02,11,2.80
2010,04,12,02,12,2.80
2010,04,12,02,13,2.80
2010,04,12,02,14,2.80
2010,04,12,02,15,2.70
2010,04,12,02,16,2.70
2010,04,12,02,17,2.70
2010,04,12,02,18,2.70
2010,04,12,02,19,2.70
2010,04,12,02,20,2.70
2010,04,12,02,21,2.70
2010,04,12,02,22,2.70
2010,04,12,02,23,2.70
2010,04,12,02,24,2.70
2010,04,12,02,25,2.60
2010,04,12,02,26,2.60
2010,04,12,02,27,2.60
2010,04,12,02,28,2.60
2010,04,12,02,29,2.60
2010,04,12,02,30,2.60
2010,04,12,02,31,2.60
2010,04,12,02,32,2.60
2010,04,12,02,33,2.60
2010,04,12,02,34,2.60
2010,04,12,02,35,2.50
2010,04,12,02,36,2.50
2010,04,12,02,37,2.50
2010,04,12,02,38,2.50
2010,04,12,02,39,2.50
2010,04,12,02,40,2.50
2010,04,12,02,41,2.50
2010,04,12,02,42,2.50
2010,04,12,02,43,2.50
2010,04,12,02,44,2.40
2010,04,12,02,45,2.40
2010,04,12,02,46,2.40
2010,04,12,02,47,2.40
2010,04,12,02,48,2.40
2010,04,12,02,49,2.40
2010,04,12,02,50,2.40
2010,04,12,02,51,2.40
2010,04,12,02,52,2.40
2010,04,12,02,53,2.40
2010,04,12,02,54,2.40
2010,04,12,02,55,2.40
2010,04,12,02,56,2.40
2010,04,12,02,57,2.40
2010,04,12,02,58,2.40
2010,04,12,02,59,2.40
2010,04,12,03,00,2.40
2010,04,12,03,01,2.50
2010,04,12,03,02,2.50
2010,04,12,03,06,2.60
2010,04,12,03,07,2.60
2010,04,12,03,08,2.60
2010,04,12,03,09,2.60
2010,04,12,03,10,2.70
2010,04,12,03,11,2.70
2010,04,12,03,12,2.70
2010,04,12,03,13,2.70
2010,04,12,03,14,2.70
2010,04,12,03,15,2.70
2010,04,12,03,16,2.70
2010,04,12,03,17,2.70
2010,04,12,03,18,2.70
2010,04,12,03,19,2.70
2010,04,12,03,20,2.70
2010,04,12,03,21,2.70
2010,04,12,03,22,2.70
2010,04,12,03,23,2.70
2010,04,12,03,24,2.70
2010,04,12,03,25,2.70
2010,04,12,03,26,2.70
2010,04,12,03,27,2.70
2010,04,12,03,28,2.70
2010,04,12,03,29,2.70
2010,04,12,03,30,2.70
2010,04,12,03,31,2.70
2010,04,12,03,32,2.70
2010,04,12,03,33,2.70
2010,04,12,03,34,2.70
2010,04,12,03,35,2.60
2010,04,12,03,36,2.60
2010,04,12,03,37,2.60
2010,04,12,03,38,2.60
2010,04,12,03,39,2.50
2010,04,12,03,40,2.50
2010,04,12,03,41,2.50
2010,04,12,03,42,2.40
2010,04,12,03,43,2.40
2010,04,12,03,44,2.40
2010,04,12,03,45,2.40
2010,04,12,03,46,2.40
2010,04,12,03,47,2.30
2010,04,12,03,48,2.30
2010,04,12,03,49,2.30
2010,04,12,03,50,2.30
2010,04,12,03,51,2.30
2010,04,12,03,52,2.30
2010,04,12,03,53,2.30
2010,04,12,03,54,2.20
2010,04,12,03,55,2.20
2010,04,12,03,56,2.20
2010,04,12,03,57,2.20
2010,04,12,03,58,2.20
2010,04,12,03,59,2.20
2010,04,12,04,00,2.20
2010,04,12,04,01,2.10
2010,04,12,04,02,2.10
2010,04,12,04,03,2.10
2010,04,12,04,04,2.10
2010,04,12,04,05,2.10
2010,04,12,04,06,2.10
2010,04,12,04,07,2.10
2010,04,12,04,08,2.10
2010,04,12,04,09,2.10
2010,04,12,04,10,2.10
2010,04,12,04,11,2.10
2010,04,12,04,12,2.10
2010,04,12,04,13,2.10
2010,04,12,04,14,2.10
2010,04,12,04,15,2.10
2010,04,12,04,16,2.10
2010,04,12,04,17,2.10
2010,04,12,04,18,2.10
2010,04,12,04,19,2.10
2010,04,12,04,20,2.10
2010,04,12,04,21,2.10
2010,04,12,04,22,2.10
2010,04,12,04,23,2.10
2010,04,12,04,24,2.20
2010,04,12,04,25,2.20
2010,04,12,04,26,2.20
2010,04,12,04,27,2.20
2010,04,12,04,28,2.20
2010,04,12,04,29,2.20
2010,04,12,04,30,2.20
2010,04,12,04,31,2.20
2010,04,12,04,32,2.20
2010,04,12,04,33,2.20
2010,04,12,04,34,2.30
2010,04,12,04,35,2.30
2010,04,12,04,36,2.30
2010,04,12,04,37,2.30
2010,04,12,04,38,2.30
2010,04,12,04,39,2.30
2010,04,12,04,40,2.30
2010,04,12,04,41,2.30
2010,04,12,04,42,2.30
2010,04,12,04,43,2.30
2010,04,12,04,44,2.30
2010,04,12,04,45,2.40
2010,04,12,04,46,2.40
2010,04,12,04,47,2.40
2010,04,12,04,48,2.40
2010,04,12,04,49,2.40
2010,04,12,04,50,2.50
2010,04,12,04,51,2.50
2010,04,12,04,52,2.50
2010,04,12,04,53,2.50
2010,04,12,04,54,2.60
2010,04,12,04,55,2.60
2010,04,12,04,56,2.60
2010,04,12,04,57,2.60
2010,04,12,04,58,2.60
2010,04,12,04,59,2.60
2010,04,12,05,00,2.60
2010,04,12,05,01,2.60
2010,04,12,05,02,2.60
2010,04,12,05,03,2.60
2010,04,12,05,04,2.60
2010,04,12,05,05,2.50
2010,04,12,05,06,2.50
2010,04,12,05,07,2.50
2010,04,12,05,08,2.50
2010,04,12,05,09,2.50
2010,04,12,05,10,2.50
2010,04,12,05,11,2.50
2010,04,12,05,12,2.50
2010,04,12,05,13,2.50
2010,04,12,05,14,2.40
2010,04,12,05,15,2.40
2010,04,12,05,16,2.40
2010,04,12,05,17,2.40
2010,04,12,05,18,2.40
2010,04,12,05,19,2.40
2010,04,12,05,20,2.40
2010,04,12,05,21,2.40
2010,04,12,05,22,2.40
2010,04,12,05,23,2.40
2010,04,12,05,24,2.40
2010,04,12,05,25,2.40
2010,04,12,05,26,2.40
2010,04,12,05,27,2.40
2010,04,12,05,28,2.40
2010,04,12,05,29,2.40
2010,04,12,05,30,2.40
2010,04,12,05,31,2.40
2010,04,12,05,32,2.40
2010,04,12,05,33,2.40
2010,04,12,05,34,2.40
2010,04,12,05,35,2.40
2010,04,12,05,36,2.40
2010,04,12,05,37,2.30
2010,04,12,05,38,2.30
2010,04,12,05,39,2.30
2010,04,12,05,40,2.30
2010,04,12,05,41,2.30
2010,04,12,05,42,2.30
2010,04,12,05,43,2.30
2010,04,12,05,44,2.30
2010,04,12,05,45,2.30
2010,04,12,05,46,2.30
2010,04,12,05,47,2.30
2010,04,12,05,48,2.30
2010,04,12,05,49,2.30
2010,04,12,05,50,2.30
2010,04,12,05,51,2.40
2010,04,12,05,52,2.40
2010,04,12,05,53,2.40
2010,04,12,05,54,2.40
2010,04,12,05,55,2.40
2010,04,12,05,56,2.40
2010,04,12,05,57,2.40
2010,04,12,05,58,2.40
2010,04,12,05,59,2.40
2010,04,12,06,00,2.40
2010,04,12,06,01,2.50
2010,04,12,06,02,2.50
2010,04,12,06,03,2.60
2010,04,12,06,04,2.60
2010,04,12,06,05,2.60
2010,04,12,06,06,2.60
2010,04,12,06,07,2.60
2010,04,12,06,08,2.60
2010,04,12,06,09,2.60
2010,04,12,06,10,2.70
2010,04,12,06,11,2.70
2010,04,12,06,12,2.70
2010,04,12,06,13,2.70
2010,04,12,06,14,2.70
2010,04,12,06,15,2.70
2010,04,12,06,16,2.80
2010,04,12,06,17,2.80
2010,04,12,06,18,2.80
2010,04,12,06,19,2.80
2010,04,12,06,20,2.80
2010,04,12,06,21,2.90
2010,04,12,06,22,2.90
2010,04,12,06,23,2.90
2010,04,12,06,24,2.90
2010,04,12,06,25,2.90
2010,04,12,06,26,2.90
2010,04,12,06,27,2.90
2010,04,12,06,28,2.90
2010,04,12,06,29,2.90
2010,04,12,06,30,2.90
2010,04,12,06,31,2.90
2010,04,12,06,32,2.90
2010,04,12,06,33,2.90
2010,04,12,06,34,2.90
2010,04,12,06,35,2.90
2010,04,12,06,36,2.90
2010,04,12,06,37,2.90
2010,04,12,06,38,2.80
2010,04,12,06,39,2.80
2010,04,12,06,40,2.80
2010,04,12,06,41,2.80
2010,04,12,06,42,2.80
2010,04,12,06,43,2.80
2010,04,12,06,44,2.80
2010,04,12,06,45,2.80
2010,04,12,06,46,2.80
2010,04,12,06,47,2.80
2010,04,12,06,48,2.80
2010,04,12,06,49,2.80
2010,04,12,06,50,2.80
2010,04,12,06,51,2.80
2010,04,12,06,52,2.80
2010,04,12,06,53,2.80
2010,04,12,06,54,2.80
2010,04,12,06,55,2.80
2010,04,12,06,56,2.80
2010,04,12,06,57,2.80
2010,04,12,06,58,2.80
2010,04,12,06,59,2.80
2010,04,12,07,00,2.80
2010,04,12,07,01,2.80
2010,04,12,07,02,2.70
2010,04,12,07,03,2.80
2010,04,12,07,04,2.80
2010,04,12,07,05,2.80
2010,04,12,07,06,2.80
2010,04,12,07,07,2.80
2010,04,12,07,08,2.80
2010,04,12,07,09,2.80
2010,04,12,07,10,2.80
2010,04,12,07,11,2.80
2010,04,12,07,12,2.80
2010,04,12,07,13,2.80
2010,04,12,07,14,2.90
2010,04,12,07,15,2.90
2010,04,12,07,16,2.90
2010,04,12,07,17,3.00
2010,04,12,07,18,3.00
2010,04,12,07,19,3.10
2010,04,12,07,20,3.10
2010,04,12,07,21,3.10
2010,04,12,07,22,3.10
2010,04,12,07,23,3.20
2010,04,12,07,24,3.20
2010,04,12,07,25,3.20
2010,04,12,07,26,3.20
2010,04,12,07,27,3.20
2010,04,12,07,28,3.30
2010,04,12,07,29,3.30
2010,04,12,07,30,3.30
2010,04,12,07,31,3.30
2010,04,12,07,32,3.30
2010,04,12,07,33,3.40
2010,04,12,07,34,3.40
2010,04,12,07,35,3.40
2010,04,12,07,36,3.40
2010,04,12,07,37,3.50
2010,04,12,07,38,3.50
2010,04,12,07,39,3.50
2010,04,12,07,40,3.50
2010,04,12,07,41,3.60
2010,04,12,07,42,3.60
2010,04,12,07,43,3.60
2010,04,12,07,44,3.60
2010,04,12,07,45,3.60
2010,04,12,07,46,3.70
2010,04,12,07,47,3.70
2010,04,12,07,48,3.70
2010,04,12,07,49,3.70
2010,04,12,07,50,3.70
2010,04,12,07,51,3.70
2010,04,12,07,52,3.70
2010,04,12,07,53,3.80
2010,04,12,07,54,3.80
2010,04,12,07,55,3.80
2010,04,12,07,56,3.80
2010,04,12,07,57,3.80
2010,04,12,07,58,3.80
2010,04,12,07,59,3.80
2010,04,12,08,00,3.80
2010,04,12,08,01,3.90
2010,04,12,08,02,3.90
2010,04,12,08,03,3.90
2010,04,12,08,04,3.90
2010,04,12,08,05,3.90
2010,04,12,08,06,4.00
2010,04,12,08,07,4.00
2010,04,12,08,08,4.10
2010,04,12,08,09,4.10
2010,04,12,08,10,4.10
2010,04,12,08,11,4.10
2010,04,12,08,12,4.20
2010,04,12,08,13,4.20
2010,04,12,08,14,4.20
2010,04,12,08,15,4.30
2010,04,12,08,16,4.30
2010,04,12,08,17,4.30
2010,04,12,08,18,4.40
2010,04,12,08,19,4.40
2010,04,12,08,20,4.40
2010,04,12,08,21,4.40
2010,04,12,08,22,4.50
2010,04,12,08,23,4.50
2010,04,12,08,24,4.60
2010,04,12,08,25,4.60
2010,04,12,08,26,4.60
2010,04,12,08,27,4.70
2010,04,12,08,28,4.70
2010,04,12,08,29,4.70
2010,04,12,08,30,4.70
2010,04,12,08,31,4.70
2010,04,12,08,32,4.80
2010,04,12,08,33,4.80
2010,04,12,08,34,4.80
2010,04,12,08,35,4.80
2010,04,12,08,36,4.80
2010,04,12,08,37,4.80
2010,04,12,08,38,4.80
2010,04,12,08,39,4.80
2010,04,12,08,40,4.90
2010,04,12,08,41,4.90
2010,04,12,08,42,4.90
2010,04,12,08,43,4.90
2010,04,12,08,44,5.00
2010,04,12,08,45,5.00
2010,04,12,08,46,5.00
2010,04,12,08,47,5.10
2010,04,12,08,48,5.10
2010,04,12,08,49,5.10
2010,04,12,08,50,5.20
2010,04,12,08,51,5.20
2010,04,12,08,52,5.30
2010,04,12,08,53,5.30
2010,04,12,08,54,5.40
2010,04,12,08,55,5.50
2010,04,12,08,56,5.50
2010,04,12,08,57,5.60
2010,04,12,08,58,5.70
2010,04,12,08,59,5.70
2010,04,12,09,00,5.80
2010,04,12,09,01,5.90
2010,04,12,09,02,5.90
2010,04,12,09,03,6.00
2010,04,12,09,04,6.10
2010,04,12,09,05,6.20
2010,04,12,09,06,6.20
2010,04,12,09,07,6.30
2010,04,12,09,08,6.40
2010,04,12,09,09,6.50
2010,04,12,09,10,6.60
2010,04,12,09,11,6.70
2010,04,12,09,12,6.80
2010,04,12,09,13,6.90
2010,04,12,09,14,6.90
2010,04,12,09,15,7.00
2010,04,12,09,16,7.10
2010,04,12,09,17,7.20
2010,04,12,09,18,7.20
2010,04,12,09,19,7.20
2010,04,12,09,20,7.30
2010,04,12,09,21,7.30
2010,04,12,09,22,7.40
2010,04,12,09,23,7.40
2010,04,12,09,24,7.40
2010,04,12,09,25,7.40
2010,04,12,09,26,7.50
2010,04,12,09,27,7.50
2010,04,12,09,28,7.50
2010,04,12,09,29,7.50
2010,04,12,09,30,7.60
2010,04,12,09,31,7.60
2010,04,12,09,32,7.60
2010,04,12,09,33,7.60
2010,04,12,09,34,7.70
2010,04,12,09,35,7.70
2010,04,12,09,36,7.70
2010,04,12,09,37,7.80
2010,04,12,09,38,7.80
2010,04,12,09,39,7.80
2010,04,12,09,40,7.90
2010,04,12,09,41,8.00
2010,04,12,09,42,8.00
2010,04,12,09,43,8.10
2010,04,12,09,44,8.10
2010,04,12,09,45,8.20
2010,04,12,09,46,8.20
2010,04,12,09,47,8.30
2010,04,12,09,48,8.40
2010,04,12,09,49,8.50
2010,04,12,09,50,8.50
2010,04,12,09,51,8.60
2010,04,12,09,52,8.60
2010,04,12,09,53,8.70
2010,04,12,09,54,8.70
2010,04,12,09,55,8.80
2010,04,12,09,56,8.90
2010,04,12,09,57,8.90
2010,04,12,09,58,9.00
2010,04,12,09,59,9.10
2010,04,12,10,00,9.10
2010,04,12,10,01,9.20
2010,04,12,10,02,9.30
2010,04,12,10,03,9.30
2010,04,12,10,04,9.30
2010,04,12,10,05,9.40
2010,04,12,10,06,9.50
2010,04,12,10,07,9.50
2010,04,12,10,08,9.50
2010,04,12,10,09,9.60
2010,04,12,10,10,9.60
2010,04,12,10,11,9.60
2010,04,12,10,12,9.60
2010,04,12,10,13,9.70
2010,04,12,10,14,9.70
2010,04,12,10,15,9.80
2010,04,12,10,16,9.80
2010,04,12,10,17,9.80
2010,04,12,10,18,9.90
2010,04,12,10,19,10.00
2010,04,12,10,20,10.00
2010,04,12,10,21,10.10
2010,04,12,10,22,10.20
2010,04,12,10,23,10.30
2010,04,12,10,24,10.40
2010,04,12,10,25,10.40
2010,04,12,10,26,10.50
2010,04,12,10,27,10.60
2010,04,12,10,28,10.70
2010,04,12,10,29,10.80
2010,04,12,10,30,10.90
2010,04,12,10,31,11.00
2010,04,12,10,32,11.00
2010,04,12,10,33,11.10
2010,04,12,10,34,11.20
2010,04,12,10,35,11.30
2010,04,12,10,36,11.30
2010,04,12,10,37,11.40
2010,04,12,10,38,11.50
2010,04,12,10,39,11.60
2010,04,12,10,40,11.70
2010,04,12,10,41,11.80
2010,04,12,10,42,11.80
2010,04,12,10,43,11.90
2010,04,12,10,44,12.00
2010,04,12,10,45,12.00
2010,04,12,10,46,12.10
2010,04,12,10,47,12.20
2010,04,12,10,48,12.20
2010,04,12,10,49,12.30
2010,04,12,10,50,12.40
2010,04,12,10,51,12.40
2010,04,12,10,52,12.50
2010,04,12,10,53,12.50
2010,04,12,10,54,12.60
2010,04,12,10,55,12.60
2010,04,12,10,56,12.60
2010,04,12,10,57,12.70
2010,04,12,10,58,12.70
2010,04,12,10,59,12.70
2010,04,12,11,00,12.70
2010,04,12,11,01,12.80
2010,04,12,11,02,12.80
2010,04,12,11,03,12.90
2010,04,12,11,04,12.90
2010,04,12,11,05,12.90
2010,04,12,11,06,12.90
2010,04,12,11,07,13.00
2010,04,12,11,08,13.00
2010,04,12,11,09,13.10
2010,04,12,11,10,13.20
2010,04,12,11,11,13.20
2010,04,12,11,12,13.30
2010,04,12,11,13,13.30
2010,04,12,11,14,13.30
2010,04,12,11,15,13.30
2010,04,12,11,16,13.20
2010,04,12,11,17,13.20
2010,04,12,11,18,13.20
2010,04,12,11,19,13.20
2010,04,12,11,20,13.20
2010,04,12,11,21,13.20
2010,04,12,11,22,13.20
2010,04,12,11,23,13.20
2010,04,12,11,24,13.30
2010,04,12,11,25,13.30
2010,04,12,11,26,13.30
2010,04,12,11,27,13.30
2010,04,12,11,28,13.40
2010,04,12,11,29,13.40
2010,04,12,11,30,13.50
2010,04,12,11,31,13.50
2010,04,12,11,32,13.60
2010,04,12,11,33,13.60
2010,04,12,11,34,13.60
2010,04,12,11,35,13.60
2010,04,12,11,36,13.60
2010,04,12,11,37,13.60
2010,04,12,11,38,13.70
2010,04,12,11,39,13.70
2010,04,12,11,40,13.70
2010,04,12,11,41,13.70
2010,04,12,11,42,13.70
2010,04,12,11,43,13.70
2010,04,12,11,44,13.70
2010,04,12,11,45,13.70
2010,04,12,11,46,13.70
2010,04,12,11,47,13.80
2010,04,12,11,48,13.80
2010,04,12,11,49,13.80
2010,04,12,11,50,13.80
2010,04,12,11,51,13.80
2010,04,12,11,52,13.70
2010,04,12,11,53,13.70
2010,04,12,11,54,13.70
2010,04,12,11,55,13.60
2010,04,12,11,56,13.60
2010,04,12,11,57,13.60
2010,04,12,11,58,13.60
2010,04,12,11,59,13.70
2010,04,12,12,00,13.70
2010,04,12,12,01,13.70
2010,04,12,12,02,13.70
2010,04,12,12,03,13.70
2010,04,12,12,04,13.70
2010,04,12,12,05,13.70
2010,04,12,12,06,13.70
2010,04,12,12,07,13.70
2010,04,12,12,08,13.70
2010,04,12,12,09,13.70
2010,04,12,12,10,13.80
2010,04,12,12,11,13.80
2010,04,12,12,12,13.80
2010,04,12,12,13,13.80
2010,04,12,12,14,13.90
2010,04,12,12,15,13.90
2010,04,12,12,16,13.90
2010,04,12,12,17,13.90
2010,04,12,12,18,13.90
2010,04,12,12,19,13.90
2010,04,12,12,20,13.90
2010,04,12,12,21,13.90
2010,04,12,12,22,13.90
2010,04,12,12,23,13.90
2010,04,12,12,24,13.90
2010,04,12,12,25,13.90
2010,04,12,12,26,14.00
2010,04,12,12,27,14.00
2010,04,12,12,28,14.10
2010,04,12,12,29,14.10
2010,04,12,12,30,14.10
2010,04,12,12,31,14.10
2010,04,12,12,32,14.10
2010,04,12,12,33,14.10
2010,04,12,12,34,14.20
2010,04,12,12,35,14.20
2010,04,12,12,36,14.20
2010,04,12,12,37,14.20
2010,04,12,12,38,14.30
2010,04,12,12,39,14.30
2010,04,12,12,40,14.40
2010,04,12,12,41,14.40
2010,04,12,12,42,14.50
2010,04,12,12,43,14.50
2010,04,12,12,44,14.50
2010,04,12,12,45,14.60
2010,04,12,12,46,14.60
2010,04,12,12,47,14.60
2010,04,12,12,48,14.70
2010,04,12,12,49,14.70
2010,04,12,12,50,14.70
2010,04,12,12,51,14.70
2010,04,12,12,52,14.70
2010,04,12,12,53,14.80
2010,04,12,12,54,14.80
2010,04,12,12,55,14.80
2010,04,12,12,56,14.80
2010,04,12,12,57,14.80
2010,04,12,12,58,14.80
2010,04,12,12,59,14.70
2010,04,12,13,00,14.70
2010,04,12,13,01,14.80
2010,04,12,13,02,14.80
2010,04,12,13,03,14.80
2010,04,12,13,04,14.80
2010,04,12,13,05,14.80
2010,04,12,13,06,14.80
2010,04,12,13,07,14.80
2010,04,12,13,08,14.80
2010,04,12,13,09,14.80
2010,04,12,13,10,14.80
2010,04,12,13,11,14.80
2010,04,12,13,12,14.80
2010,04,12,13,13,14.80
2010,04,12,13,14,14.80
2010,04,12,13,15,14.80
2010,04,12,13,16,14.80
2010,04,12,13,17,14.90
2010,04,12,13,18,15.00
2010,04,12,13,19,15.00
2010,04,12,13,20,15.00
2010,04,12,13,21,15.00
2010,04,12,13,22,15.00
2010,04,12,13,23,15.00
2010,04,12,13,24,15.00
2010,04,12,13,25,15.00
2010,04,12,13,26,15.00
2010,04,12,13,27,15.00
2010,04,12,13,28,15.00
2010,04,12,13,29,15.00
2010,04,12,13,30,15.00
2010,04,12,13,31,15.00
2010,04,12,13,32,15.00
2010,04,12,13,33,15.00
2010,04,12,13,34,15.00
2010,04,12,13,35,15.10
2010,04,12,13,36,15.10
2010,04,12,13,37,15.10
2010,04,12,13,38,15.00
2010,04,12,13,39,15.00
2010,04,12,13,40,15.00
2010,04,12,13,41,15.00
2010,04,12,13,42,15.00
2010,04,12,13,43,15.00
2010,04,12,13,44,14.90
2010,04,12,13,45,14.90
2010,04,12,13,46,14.80
2010,04,12,13,47,14.90
2010,04,12,13,48,14.80
2010,04,12,13,49,14.80
2010,04,12,13,50,14.80
2010,04,12,13,51,14.80
2010,04,12,13,52,14.80
2010,04,12,13,53,14.80
2010,04,12,13,54,14.80
2010,04,12,13,55,14.80
2010,04,12,13,56,14.80
2010,04,12,13,57,14.80
2010,04,12,13,58,14.80
2010,04,12,13,59,14.80
2010,04,12,14,00,14.80
2010,04,12,14,01,14.90
2010,04,12,14,02,14.90
2010,04,12,14,03,14.90
2010,04,12,14,04,14.90
2010,04,12,14,05,15.00
2010,04,12,14,06,15.00
2010,04,12,14,07,15.00
2010,04,12,14,08,15.00
2010,04,12,14,09,15.00
2010,04,12,14,10,15.00
2010,04,12,14,11,15.00
2010,04,12,14,12,15.00
2010,04,12,14,13,15.00
2010,04,12,14,14,15.00
2010,04,12,14,15,15.00
2010,04,12,14,16,15.00
2010,04,12,14,17,15.00
2010,04,12,14,18,15.00
2010,04,12,14,19,15.00
2010,04,12,14,20,15.00
2010,04,12,14,21,15.00
2010,04,12,14,22,15.00
2010,04,12,14,23,15.00
2010,04,12,14,24,15.00
2010,04,12,14,25,15.10
2010,04,12,14,26,15.20
2010,04,12,14,27,15.20
2010,04,12,14,28,15.20
2010,04,12,14,29,15.20
2010,04,12,14,30,15.20
2010,04,12,14,31,15.20
2010,04,12,14,32,15.20
2010,04,12,14,33,15.20
2010,04,12,14,34,15.20
2010,04,12,14,35,15.30
2010,04,12,14,36,15.30
2010,04,12,14,37,15.30
2010,04,12,14,38,15.30
2010,04,12,14,39,15.20
2010,04,12,14,40,15.20
2010,04,12,14,41,15.20
2010,04,12,14,42,15.20
2010,04,12,14,43,15.20
2010,04,12,14,44,15.20
2010,04,12,14,45,15.20
2010,04,12,14,46,15.20
2010,04,12,14,47,15.20
2010,04,12,14,48,15.20
2010,04,12,14,49,15.20
2010,04,12,14,50,15.20
2010,04,12,14,51,15.30
2010,04,12,14,52,15.30
2010,04,12,14,53,15.40
2010,04,12,14,54,15.40
2010,04,12,14,55,15.50
2010,04,12,14,56,15.50
2010,04,12,14,57,15.50
2010,04,12,14,58,15.60
2010,04,12,14,59,15.60
2010,04,12,15,00,15.60
2010,04,12,15,01,15.70
2010,04,12,15,02,15.80
2010,04,12,15,03,15.80
2010,04,12,15,04,15.90
2010,04,12,15,05,15.90
2010,04,12,15,06,15.90
2010,04,12,15,07,15.80
2010,04,12,15,08,15.80
2010,04,12,15,09,15.80
2010,04,12,15,10,15.80
2010,04,12,15,11,15.80
2010,04,12,15,12,15.70
2010,04,12,15,13,15.70
2010,04,12,15,14,15.70
2010,04,12,15,15,15.70
2010,04,12,15,16,15.80
2010,04,12,15,17,15.80
2010,04,12,15,18,15.90
2010,04,12,15,19,15.90
2010,04,12,15,20,15.90
2010,04,12,15,21,15.90
2010,04,12,15,22,15.90
2010,04,12,15,23,15.90
2010,04,12,15,24,15.90
2010,04,12,15,25,15.90
2010,04,12,15,26,15.80
2010,04,12,15,27,15.80
2010,04,12,15,28,15.80
2010,04,12,15,29,15.80
2010,04,12,15,30,15.80
2010,04,12,15,31,15.80
2010,04,12,15,32,15.80
2010,04,12,15,33,15.80
2010,04,12,15,34,15.80
2010,04,12,15,35,15.80
2010,04,12,15,36,15.80
2010,04,12,15,37,15.80
2010,04,12,15,38,15.80
2010,04,12,15,39,15.70
2010,04,12,15,40,15.70
2010,04,12,15,41,15.60
2010,04,12,15,42,15.50
2010,04,12,15,43,15.50
2010,04,12,15,44,15.40
2010,04,12,15,45,15.40
2010,04,12,15,46,15.30
2010,04,12,15,47,15.30
2010,04,12,15,48,15.30
2010,04,12,15,49,15.30
2010,04,12,15,50,15.20
2010,04,12,15,51,15.20
2010,04,12,15,52,15.20
2010,04,12,15,53,15.20
2010,04,12,15,54,15.20
2010,04,12,15,55,15.20
2010,04,12,15,56,15.20
2010,04,12,15,57,15.10
2010,04,12,15,58,15.10
2010,04,12,15,59,15.00
2010,04,12,16,00,15.00
2010,04,12,16,01,15.00
2010,04,12,16,02,15.00
2010,04,12,16,03,15.00
2010,04,12,16,04,15.00
2010,04,12,16,05,15.00
2010,04,12,16,06,14.90
2010,04,12,16,07,14.80
2010,04,12,16,08,14.80
2010,04,12,16,09,14.80
2010,04,12,16,10,14.70
2010,04,12,16,11,14.70
2010,04,12,16,12,14.70
2010,04,12,16,13,14.60
2010,04,12,16,14,14.60
2010,04,12,16,15,14.60
2010,04,12,16,16,14.60
2010,04,12,16,17,14.60
2010,04,12,16,18,14.60
2010,04,12,16,19,14.60
2010,04,12,16,20,14.60
2010,04,12,16,21,14.60
2010,04,12,16,22,14.60
2010,04,12,16,23,14.50
2010,04,12,16,24,14.50
2010,04,12,16,25,14.40
2010,04,12,16,26,14.40
2010,04,12,16,27,14.40
2010,04,12,16,28,14.40
2010,04,12,16,29,14.40
2010,04,12,16,30,14.40
2010,04,12,16,31,14.40
2010,04,12,16,32,14.40
2010,04,12,16,33,14.40
2010,04,12,16,34,14.40
2010,04,12,16,35,14.40
2010,04,12,16,36,14.40
2010,04,12,16,37,14.40
2010,04,12,16,38,14.40
2010,04,12,16,39,14.40
2010,04,12,16,40,14.40
2010,04,12,16,41,14.40
2010,04,12,16,42,14.40
2010,04,12,16,43,14.40
2010,04,12,16,44,14.40
2010,04,12,16,45,14.40
2010,04,12,16,46,14.40
2010,04,12,16,47,14.40
2010,04,12,16,48,14.30
2010,04,12,16,49,14.30
2010,04,12,16,50,14.30
2010,04,12,16,51,14.30
2010,04,12,16,52,14.30
2010,04,12,16,53,14.30
2010,04,12,16,54,14.30
2010,04,12,16,55,14.30
2010,04,12,16,56,14.30
2010,04,12,16,57,14.30
2010,04,12,16,58,14.40
2010,04,12,16,59,14.40
2010,04,12,17,00,14.40
2010,04,12,17,01,14.40
2010,04,12,17,02,14.40
2010,04,12,17,03,14.40
2010,04,12,17,04,14.40
2010,04,12,17,05,14.40
2010,04,12,17,06,14.40
2010,04,12,17,07,14.50
2010,04,12,17,08,14.50
2010,04,12,17,09,14.50
2010,04,12,17,10,14.50
2010,04,12,17,11,14.50
2010,04,12,17,12,14.60
2010,04,12,17,13,14.60
2010,04,12,17,14,14.60
2010,04,12,17,15,14.60
2010,04,12,17,16,14.60
2010,04,12,17,17,14.60
2010,04,12,17,18,14.60
2010,04,12,17,19,14.60
2010,04,12,17,20,14.60
2010,04,12,17,21,14.60
2010,04,12,17,22,14.60
2010,04,12,17,23,14.60
2010,04,12,17,24,14.60
2010,04,12,17,25,14.60
2010,04,12,17,26,14.50
2010,04,12,17,27,14.50
2010,04,12,17,28,14.50
2010,04,12,17,29,14.50
2010,04,12,17,30,14.40
2010,04,12,17,31,14.40
2010,04,12,17,32,14.40
2010,04,12,17,33,14.40
2010,04,12,17,34,14.40
2010,04,12,17,35,14.40
2010,04,12,17,36,14.40
2010,04,12,17,37,14.40
2010,04,12,17,38,14.40
2010,04,12,17,39,14.40
2010,04,12,17,40,14.40
2010,04,12,17,41,14.40
2010,04,12,17,42,14.40
2010,04,12,17,43,14.40
2010,04,12,17,44,14.40
2010,04,12,17,45,14.30
2010,04,12,17,46,14.30
2010,04,12,17,47,14.30
2010,04,12,17,48,14.30
2010,04,12,17,49,14.20